This demonstration page uses our WeatherBlox Daily Observations layout. Learn more.

Left ArrowRight Arrow

34.16533, -84.80231

Hourly Observations for May 15, 2017

Temp ( °F °C ) Dew Point ( °F °C ) Humidity (%) Winds ( mph kmh ) Pressure ( in mb ) Visibility ( mi km ) Precip ( " mm )
12:53 am 00:53 Clear 58 14.4 58 14.4 100 100 Calm 29.96 1015 10 16 0.00 0.00
1:53 am 01:53 Clear 58 14.4 58 14.4 100 100 Calm 29.96 1015 8 13 0.00 0.00
2:53 am 02:53 Clear 56 13.3 56 13.3 100 100 Calm 29.97 1015 10 16 0.00 0.00
3:53 am 03:53 Clear 55 12.8 55 12.8 100 100 Calm 29.97 1015 9 14 0.00 0.00
4:53 am 04:53 Clear 54 12.2 54 12.2 100 100 Calm 29.98 1015 9 14 0.00 0.00
5:53 am 05:53 Clear 54 12.2 54 12.2 100 100 Calm 29.98 1015 8 13 0.00 0.00
6:53 am 06:53 Sunny 55 12.8 55 12.8 100 100 Calm 30.00 1016 7 11 0.00 0.00
7:33 am 07:33 Partly Cloudy 57 13.9 57 13.9 100 100 Calm 30.03 1017 10 16 0.00 0.00
7:53 am 07:53 Mostly Sunny 60 15.6 60 15.6 100 100 Calm 30.02 1017 10 16 0.00 0.00
8:53 am 08:53 Sunny 65 18.3 62 16.7 90 90 Calm 30.03 1017 10 16 0.00 0.00
9:53 am 09:53 Sunny 71 21.7 64 17.8 79 79 SW 3 6 30.04 1017 10 16 0.00 0.00
10:53 am 10:53 Sunny 75 23.9 63 17.2 66 66 VRB 3 6 30.03 1017 10 16 0.00 0.00
11:53 am 11:53 Sunny 80 26.7 62 16.7 54 54 VRB 3 6 30.03 1017 10 16 0.00 0.00
12:53 pm 12:53 Sunny 81 27.2 60 15.6 49 49 VRB 3 6 30.01 1016 10 16 0.00 0.00
1:53 pm 13:53 Sunny 83 28.3 60 15.6 46 46 VRB 3 6 29.99 1016 10 16 0.00 0.00
2:53 pm 14:53 Sunny 84 28.9 58 14.4 41 41 SSW 6 9 29.97 1015 10 16 0.00 0.00
3:53 pm 15:53 Sunny 84 28.9 59 15 43 43 Calm 29.95 1014 10 16 0.00 0.00
4:53 pm 16:53 Sunny 85 29.4 59 15 42 42 Calm 29.94 1014 10 16 0.00 0.00
5:53 pm 17:53 Sunny 85 29.4 59 15 42 42 Calm 29.94 1014 10 16 0.00 0.00
6:53 pm 18:53 Sunny 85 29.4 59 15 42 42 Calm 29.95 1014 10 16 0.00 0.00
7:53 pm 19:53 Sunny 79 26.1 61 16.1 54 54 Calm 29.96 1015 10 16 0.00 0.00
8:53 pm 20:53 Clear 68 20 65 18.3 90 90 Calm 29.97 1015 10 16 0.00 0.00
9:53 pm 21:53 Clear 66 18.9 64 17.8 93 93 Calm 29.97 1015 10 16 0.00 0.00
10:53 pm 22:53 Clear 65 18.3 63 17.2 93 93 Calm 29.99 1016 10 16 0.00 0.00
11:53 pm 23:53 Clear 62 16.7 62 16.7 100 100 Calm 29.98 1015 10 16 0.00 0.00

Powered by AerisWeather